Eagle River, WI

2:23 AM CDT on July 21, 2017 (GMT -0500)
Eagle River Union

Weather History for KEGV - September, 2014

Change the Weather History Date:

Monday, September 29, 2014

  Actual Average Record
Temperature  
Mean Temperature 46 °F -  
Max Temperature 56 °F 57 °F 75 °F (2000)
Min Temperature 36 °F 39 °F 24 °F (2003)
Degree Days  
Heating Degree Days 19    
Moisture  
Dew Point 43 °F    
Average Humidity 94    
Maximum Humidity 100    
Minimum Humidity 70    
Precipitation  
Precipitation 0.18 in - - ()
Sea Level Pressure  
Sea Level Pressure 30.10 in    
Wind  
Wind Speed 7 mph (North)    
Max Wind Speed 15 mph    
Max Gust Speed 21 mph    
Visibility 7 miles    
Events Fog , Rain , Snow    
Averages and records for this station are not official NWS values.
T = Trace of Precipitation, MM = Missing Value Source: NWS Daily Summary

Daily Weather History Graph

Daily Weather History Graph

Search for Another Location

Airport or City:

Trip Planner

Search our weather history database for the weather conditions in past years. The results will help you decide how hot, cold, wet, or windy it might be!

Date:

Astronomy

Sep. 29, 2014 Rise Set
Actual Time 6:52 AM CDT 6:40 PM CDT
Civil Twilight 6:23 AM CDT 7:10 PM CDT
Nautical Twilight 5:48 AM CDT 7:45 PM CDT
Astronomical Twilight 5:13 AM CDT 8:20 PM CDT
Moon 12:19 PM CDT (9/29) 10:00 PM CDT (9/29)
Length of Visible Light 12h 47m
Length of Day
11h 48m
Waxing Crescent, 28% of the Moon is Illuminated
Sep 29
Waxing Crescent
Oct 1
First Quarter
Oct 8
Full
Oct 15
Last Quarter
Oct 23
New

Hourly Weather History & Observations

Time (CDT) Temp. Windchill Dew Point Humidity Pressure Visibility Wind Dir Wind Speed Gust Speed Precip Events Conditions
12:15 AM 55.4 °F - 55.2 °F 99% 30.02 in 7.0 mi Calm Calm - N/A   Clear
12:35 AM 54.5 °F - 53.6 °F 97% 30.02 in 7.0 mi Calm Calm - N/A   Clear
12:55 AM 53.8 °F - 53.8 °F 100% 30.02 in 5.0 mi Calm Calm - N/A   Clear
1:15 AM 53.8 °F - 53.8 °F 100% 30.02 in 2.5 mi Calm Calm - N/A   Scattered Clouds
1:35 AM 56.7 °F - 55.9 °F 97% 30.02 in 10.0 mi Calm Calm - N/A   Mostly Cloudy
1:55 AM 55.9 °F - 55.4 °F 98% 30.02 in 7.0 mi Calm Calm - N/A   Scattered Clouds
2:15 AM 53.4 °F - 53.2 °F 99% 30.02 in 5.0 mi Calm Calm - N/A   Scattered Clouds
2:35 AM 53.8 °F - 53.8 °F 100% 30.01 in 7.0 mi North 4.6 mph - N/A   Scattered Clouds
2:55 AM 53.8 °F - 53.8 °F 100% 30.03 in 0.5 mi North 6.9 mph - N/A Fog Fog
3:15 AM 52.7 °F - 52.7 °F 100% 30.03 in 1.5 mi North 8.1 mph - N/A   Overcast
3:35 AM 50.7 °F - 50.7 °F 100% 30.04 in 2.5 mi North 10.4 mph - N/A   Overcast
3:55 AM 50.0 °F - 50.0 °F 100% 30.04 in 4.0 mi North 6.9 mph - N/A   Overcast
4:15 AM 48.7 °F - 48.7 °F 100% 30.04 in 4.0 mi North 10.4 mph - N/A   Overcast
4:35 AM 47.7 °F - 47.7 °F 100% 30.04 in 5.0 mi North 9.2 mph - N/A   Overcast
4:55 AM 46.6 °F - 46.6 °F 100% 30.05 in 7.0 mi North 10.4 mph - N/A   Overcast
5:15 AM 46.4 °F 41.9 °F 46.4 °F 100% 30.05 in 10.0 mi NNW 9.2 mph - N/A   Overcast
5:35 AM 46.0 °F 41.9 °F 46.0 °F 100% 30.05 in 7.0 mi North 8.1 mph - N/A Rain Light Rain
5:55 AM 45.9 °F 42.3 °F 45.9 °F 100% 30.05 in 10.0 mi North 6.9 mph - N/A Rain Rain
6:15 AM 45.3 °F 40.6 °F 45.1 °F 99% 30.06 in 10.0 mi North 9.2 mph - 0.01 in Rain Light Rain
6:35 AM 44.8 °F 41.0 °F 44.6 °F 99% 30.06 in 10.0 mi North 6.9 mph - 0.02 in Rain Rain
6:55 AM 44.6 °F 40.2 °F 44.4 °F 99% 30.06 in 10.0 mi North 8.1 mph - 0.03 in Rain Light Rain
7:15 AM 44.6 °F 40.7 °F 44.2 °F 99% 30.07 in 10.0 mi North 6.9 mph - 0.01 in Rain Rain
7:35 AM 44.1 °F 40.1 °F 43.9 °F 99% 30.07 in 10.0 mi North 6.9 mph - 0.04 in Rain Rain
7:55 AM 43.9 °F 38.8 °F 43.7 °F 99% 30.08 in 10.0 mi North 9.2 mph - 0.04 in Rain Light Rain
8:15 AM 43.7 °F 39.1 °F 43.7 °F 100% 30.09 in 7.0 mi North 8.1 mph - 0.02 in Rain Rain
8:35 AM 43.7 °F 39.7 °F 43.7 °F 100% 30.09 in 7.0 mi North 6.9 mph - 0.04 in Rain Rain
8:55 AM 43.2 °F 37.0 °F 42.8 °F 99% 30.09 in 10.0 mi NNE 11.5 mph - 0.06 in Rain Rain
9:15 AM 42.6 °F 36.8 °F 42.3 °F 99% 30.10 in 4.0 mi North 10.4 mph - 0.05 in Rain Light Rain
9:35 AM 42.8 °F 37.5 °F 42.6 °F 99% 30.10 in 10.0 mi North 9.2 mph - 0.05 in   Overcast
9:55 AM 42.6 °F 37.2 °F 42.1 °F 98% 30.11 in 10.0 mi North 9.2 mph - 0.05 in   Overcast
10:15 AM 43.0 °F 37.2 °F 42.3 °F 97% 30.11 in 7.0 mi North 10.4 mph 18.4 mph N/A   Overcast
10:35 AM 44.4 °F 39.0 °F 43.0 °F 95% 30.11 in 10.0 mi North 10.4 mph - N/A   Overcast
10:55 AM 43.3 °F 37.7 °F 42.3 °F 96% 30.11 in 5.0 mi North 10.4 mph - N/A   Overcast
11:15 AM 44.6 °F 40.2 °F 43.0 °F 94% 30.11 in 4.0 mi North 8.1 mph - N/A   Overcast
11:35 AM 45.9 °F 40.4 °F 43.7 °F 92% 30.11 in 10.0 mi North 11.5 mph 17.3 mph N/A   Overcast
11:55 AM 44.8 °F 38.7 °F 43.0 °F 93% 30.11 in 3.0 mi NNW 12.7 mph - N/A   Light Drizzle
12:15 PM 45.7 °F 39.8 °F 39.9 °F 80% 30.12 in 10.0 mi North 12.7 mph 19.6 mph N/A   Overcast
12:35 PM 46.2 °F 40.8 °F 39.2 °F 76% 30.11 in 10.0 mi North 11.5 mph - N/A   Overcast
12:55 PM 45.0 °F 38.2 °F 39.6 °F 81% 30.12 in 7.0 mi North 15.0 mph 18.4 mph N/A   Light Drizzle
1:15 PM 47.7 °F - 38.5 °F 70% 30.12 in 10.0 mi North 15.0 mph 18.4 mph N/A   Mostly Cloudy
1:35 PM 45.0 °F 38.9 °F 38.7 °F 79% 30.12 in 5.0 mi North 12.7 mph 18.4 mph N/A   Haze
1:55 PM 46.4 °F 40.1 °F 37.9 °F 72% 30.12 in 10.0 mi NNE 15.0 mph 20.7 mph N/A   Overcast
2:15 PM 45.7 °F 40.2 °F 38.1 °F 75% 30.12 in 7.0 mi North 11.5 mph 20.7 mph N/A   Overcast
2:35 PM 46.6 °F - 38.7 °F 74% 30.12 in 7.0 mi NNE 13.8 mph 18.4 mph N/A Rain Light Rain
2:55 PM 45.5 °F 40.3 °F 38.3 °F 76% 30.12 in 10.0 mi NNW 10.4 mph 16.1 mph N/A   Overcast
3:15 PM 44.2 °F 39.2 °F 38.8 °F 81% 30.12 in 5.0 mi North 9.2 mph 16.1 mph N/A   Light Drizzle
3:35 PM 44.1 °F 37.7 °F 37.8 °F 78% 30.13 in 10.0 mi North 12.7 mph 18.4 mph N/A   Overcast
3:55 PM 43.7 °F 37.7 °F 37.6 °F 79% 30.13 in 7.0 mi North 11.5 mph - N/A   Overcast
4:15 PM 42.1 °F 36.1 °F 36.9 °F 82% 30.13 in 5.0 mi North 10.4 mph 17.3 mph N/A Rain Light Rain
4:35 PM 43.0 °F 38.2 °F 37.6 °F 81% 30.12 in 7.0 mi North 8.1 mph - N/A Rain Light Rain
4:55 PM 42.4 °F 35.7 °F 37.2 °F 82% 30.13 in 7.0 mi NNE 12.7 mph - N/A   Drizzle
5:15 PM 41.0 °F 34.7 °F 36.0 °F 82% 30.13 in 7.0 mi NNE 10.4 mph 16.1 mph N/A   Light Drizzle
5:35 PM 40.3 °F 33.9 °F 35.8 °F 84% 30.14 in 10.0 mi North 10.4 mph 17.3 mph N/A   Light Drizzle
5:55 PM 39.6 °F 33.5 °F 38.3 °F 95% 30.13 in 3.0 mi North 9.2 mph - N/A   Light Drizzle
6:15 PM 39.2 °F 32.5 °F 38.3 °F 97% 30.13 in 3.0 mi North 10.4 mph - N/A   Overcast
6:35 PM 38.8 °F 32.1 °F 37.4 °F 95% 30.14 in 7.0 mi North 10.4 mph - N/A   Drizzle
6:55 PM 38.5 °F 32.7 °F 37.9 °F 98% 30.14 in 5.0 mi North 8.1 mph - N/A   Light Drizzle
7:15 PM 38.3 °F 33.2 °F 37.8 °F 98% 30.14 in 7.0 mi NNE 6.9 mph - N/A   Drizzle
7:55 PM 37.6 °F 30.5 °F 37.4 °F 99% 30.14 in 5.0 mi North 10.4 mph - N/A   Overcast
8:15 PM 37.4 °F 31.4 °F 37.2 °F 99% 30.14 in 7.0 mi North 8.1 mph - N/A   Overcast
8:35 PM 37.4 °F 31.4 °F 37.0 °F 99% 30.14 in 5.0 mi North 8.1 mph - N/A Snow Light Snow
8:55 PM 37.0 °F 31.0 °F 36.9 °F 99% 30.14 in 5.0 mi North 8.1 mph - N/A Snow Light Snow
9:15 PM 37.4 °F 32.1 °F 37.4 °F 100% 30.15 in 5.0 mi North 6.9 mph - N/A   Overcast
9:35 PM 36.9 °F 30.7 °F 36.9 °F 100% 30.15 in 5.0 mi NNE 8.1 mph - N/A Snow Light Snow
9:55 PM 36.9 °F 29.1 °F 36.9 °F 100% 30.14 in 4.0 mi NE 11.5 mph - N/A Snow Light Snow
10:15 PM 36.9 °F 29.1 °F 36.7 °F 99% 30.14 in 7.0 mi NNE 11.5 mph - N/A   Overcast
10:35 PM 36.7 °F 28.0 °F 36.3 °F 99% 30.14 in 10.0 mi NNE 13.8 mph - N/A   Overcast
10:55 PM 36.5 °F 30.3 °F 36.1 °F 99% 30.14 in 10.0 mi North 8.1 mph - N/A   Overcast
11:15 PM 36.5 °F 29.7 °F 36.5 °F 100% 30.15 in 7.0 mi North 9.2 mph - N/A   Overcast
11:35 PM 36.5 °F 31.0 °F 36.1 °F 99% 30.14 in 7.0 mi North 6.9 mph - N/A   Overcast
11:55 PM 36.9 °F 31.4 °F 36.7 °F 99% 30.14 in 7.0 mi NNE 6.9 mph - N/A   Overcast